Location: Heiligenberg
(48.5381°N, 7.3897°E)
Time: 20:35:41
(UTC+00:00)

Cosmos 1656 Rocket - Pass Details

Date: 26 May 2022
Orbit: 796 x 845 km, 71.1° (Epoch: 03 July)

Event Time Altitude Azimuth Distance (km) Brightness Sun altitude
Rises 02:00:11 0° 333° (NNW) 3,314 7.2 -12.5°
Reaches altitude 10° 02:02:37 10° 335° (NNW) 2,379 6.4 -12.2°
Maximum altitude 02:08:03 73° 60° (ENE) 837 3.9 -11.7°
Drops below altitude 10° 02:13:27 10° 146° (SE) 2,369 5.9 -11.1°
Sets 02:15:52 0° 148° (SSE) 3,300 6.6 -10.9°
